Weather History for Jonesboro, AR

Change the Weather History Date:

Saturday, May 11, 2013

  Actual Average Record
Temperature  
Mean Temperature 66 °F 68 °F  
Max Temperature 76 °F 78 °F 92 °F (1922)
Min Temperature 56 °F 57 °F 40 °F (1924)
Degree Days  
Heating Degree Days 0 1  
Month to date heating degree days 59 23  
Since 1 July heating degree days 3544 3638  
Cooling Degree Days 1 4  
Month to date cooling degree days 19 35  
Year to date cooling degree days 68 82  
Growing Degree Days 16 (Base 50)    
Moisture  
Dew Point 53 °F    
Average Humidity 63    
Maximum Humidity 93    
Minimum Humidity 32    
Precipitation  
Precipitation 0.03 in 0.17 in 2.91 in (1953)
Month to date precipitation 4.59 2.09  
Year to date precipitation 21.12 18.76  
Snow  
Snow 0.00 in 0.00 in - ()
Month to date snowfall 0.0 0.0  
Since 1 July snowfall 11.0 4.8  
Snow Depth 0.00 in    
Sea Level Pressure  
Sea Level Pressure 30.03 in    
Wind  
Wind Speed 6 mph (NNW)    
Max Wind Speed 14 mph    
Max Gust Speed 22 mph    
Visibility 10 miles    
Events      
T = Trace of Precipitation, MM = Missing Value Source: NWS Daily Summary

Daily Weather History Graph

Daily Weather History Graph

Search for Another Location

Airport:

Trip Planner

Search our weather history database for the weather conditions in past years. The results will help you decide how hot, cold, wet, or windy it might be!

Date:

Astronomy

May. 11, 2013 Rise Set
Actual Time 6:00 AM CDT 7:58 PM CDT
Civil Twilight 5:32 AM CDT 8:26 PM CDT
Nautical Twilight 4:57 AM CDT 9:00 PM CDT
Astronomical Twilight 4:21 AM CDT 9:37 PM CDT
Moon 7:09 AM CDT (5/11) 9:37 PM CDT (5/11)
Length of Visible Light 14h 54m
Length of Day
13h 57m
Waxing Crescent, 3% of the Moon is Illuminated
May 11
Waxing Crescent
May 17
First Quarter
May 24
Full
May 31
Last Quarter
Jun 8
New

Hourly Weather History & Observations

Time (CDT) Temp. Dew Point Humidity Pressure Visibility Wind Dir Wind Speed Gust Speed Precip Events Conditions
12:15 AM 66.2 °F 57.2 °F 73% 29.99 in 10.0 mi North 4.6 mph - N/A   Overcast
12:36 AM 66.2 °F 57.2 °F 73% 30.00 in 10.0 mi NNW 5.8 mph - N/A   Overcast
12:53 AM 66.9 °F 57.0 °F 70% 29.99 in 10.0 mi NNW 4.6 mph - N/A   Overcast
1:53 AM 63.0 °F 57.0 °F 81% 29.97 in 10.0 mi North 4.6 mph - N/A   Partly Cloudy
2:53 AM 61.0 °F 55.9 °F 83% 29.98 in 10.0 mi Calm Calm - N/A   Clear
3:53 AM 60.1 °F 55.0 °F 83% 29.98 in 10.0 mi North 3.5 mph - N/A   Mostly Cloudy
4:53 AM 59.0 °F 55.0 °F 87% 29.98 in 10.0 mi North 4.6 mph - N/A   Mostly Cloudy
5:53 AM 57.9 °F 54.0 °F 87% 30.01 in 10.0 mi NW 4.6 mph - N/A   Clear
6:53 AM 57.9 °F 55.0 °F 90% 30.02 in 10.0 mi NNW 3.5 mph - N/A   Partly Cloudy
7:53 AM 61.0 °F 55.0 °F 81% 30.03 in 10.0 mi NNW 5.8 mph - N/A   Clear
8:53 AM 62.1 °F 55.0 °F 78% 30.04 in 10.0 mi NNW 9.2 mph - N/A   Clear
9:53 AM 63.0 °F 54.0 °F 72% 30.05 in 10.0 mi NNW 4.6 mph - N/A   Mostly Cloudy
10:35 AM 66.2 °F 55.4 °F 68% 30.05 in 10.0 mi NNW 4.6 mph - N/A   Mostly Cloudy
10:53 AM 66.9 °F 55.0 °F 66% 30.05 in 10.0 mi Variable 4.6 mph - N/A   Mostly Cloudy
11:23 AM 66.2 °F 53.6 °F 64% 30.06 in 10.0 mi NW 8.1 mph - N/A   Mostly Cloudy
11:53 AM 69.1 °F 54.0 °F 58% 30.05 in 10.0 mi North 8.1 mph - N/A   Scattered Clouds
12:53 PM 68.0 °F 53.1 °F 59% 30.04 in 10.0 mi NNW 10.4 mph 17.3 mph N/A   Scattered Clouds
1:53 PM 70.0 °F 53.1 °F 55% 30.04 in 10.0 mi North 8.1 mph - N/A   Mostly Cloudy
2:53 PM 73.0 °F 53.1 °F 49% 30.03 in 10.0 mi NNW 6.9 mph 17.3 mph N/A   Partly Cloudy
3:16 PM 73.4 °F 51.8 °F 47% 30.04 in 10.0 mi NW 11.5 mph - N/A   Partly Cloudy
3:53 PM 73.9 °F 54.0 °F 50% 30.03 in 10.0 mi Variable 6.9 mph - N/A   Scattered Clouds
4:53 PM 75.0 °F 53.1 °F 46% 30.01 in 10.0 mi WNW 5.8 mph - N/A   Clear
5:53 PM 75.0 °F 52.0 °F 44% 29.99 in 10.0 mi NW 4.6 mph - N/A   Clear
6:53 PM 71.1 °F 55.0 °F 57% 29.99 in 10.0 mi SW 5.8 mph - N/A   Overcast
7:53 PM 66.9 °F 60.1 °F 79% 30.00 in 10.0 mi WSW 4.6 mph - 0.02 in   Overcast
8:53 PM 68.0 °F 53.1 °F 59% 30.03 in 10.0 mi NNW 5.8 mph - N/A   Scattered Clouds
9:53 PM 66.9 °F 36.0 °F 32% 30.07 in 10.0 mi North 10.4 mph 20.7 mph 0.01 in   Partly Cloudy
10:53 PM 63.0 °F 37.9 °F 40% 30.11 in 10.0 mi North 8.1 mph - N/A   Clear
11:53 PM 60.1 °F 37.9 °F 44% 30.13 in 10.0 mi North 8.1 mph - N/A   Clear